Time,TemperatureF,DewpointF,PressureIn,WindDirection,WindDirectionDegrees,WindSpeedMPH,WindSpeedGustMPH,Humidity,HourlyPrecipIn,Conditions,Clouds,dailyrainin,SoftwareType,DateUTC
2013-04-18 00:23:00,64.0,59.0,30.06,NE,44,0.0,0.0,83,0.00,,,0.00,,2013-04-18 04:23:00,
2013-04-18 00:33:00,64.0,59.0,30.06,NE,44,0.0,0.0,83,0.00,,,0.00,,2013-04-18 04:33:00,
2013-04-18 00:43:00,65.0,60.0,30.06,NE,45,0.0,0.0,83,0.00,,,0.00,,2013-04-18 04:43:00,
2013-04-18 00:53:00,65.0,60.0,30.06,NE,45,0.0,0.0,83,0.00,,,0.00,,2013-04-18 04:53:00,
2013-04-18 01:02:00,65.0,60.0,30.06,NE,45,0.0,0.0,83,0.00,,,0.00,,2013-04-18 05:02:00,
2013-04-18 01:12:00,65.0,60.0,30.06,NE,45,0.0,0.0,83,0.00,,,0.00,,2013-04-18 05:12:00,
2013-04-18 01:22:00,65.0,60.0,30.06,NE,45,0.0,0.0,83,0.00,,,0.00,,2013-04-18 05:22:00,
2013-04-18 01:42:00,64.0,59.0,30.03,NNE,26,0.0,5.0,83,0.00,,,0.00,,2013-04-18 05:42:00,
2013-04-18 01:52:00,64.0,59.0,30.03,NNE,26,0.0,5.0,83,0.00,,,0.00,,2013-04-18 05:52:00,
2013-04-18 02:02:00,64.0,59.0,30.03,NNE,26,0.0,5.0,83,0.00,,,0.00,,2013-04-18 06:02:00,
2013-04-18 02:12:00,64.0,59.0,30.03,NNE,26,0.0,5.0,83,0.00,,,0.00,,2013-04-18 06:12:00,
2013-04-18 02:22:00,63.0,58.0,30.03,NNE,24,0.0,0.0,83,0.00,,,0.00,,2013-04-18 06:22:00,
2013-04-18 02:32:00,63.0,58.0,30.03,NNE,24,0.0,0.0,83,0.00,,,0.00,,2013-04-18 06:32:00,
2013-04-18 02:42:00,63.0,58.0,30.03,NNE,26,0.0,0.0,83,0.00,,,0.00,,2013-04-18 06:42:00,
2013-04-18 02:52:00,63.0,58.0,30.03,NNE,26,0.0,0.0,83,0.00,,,0.00,,2013-04-18 06:52:00,
2013-04-18 03:02:00,63.0,58.0,30.03,NNE,26,0.0,0.0,83,0.00,,,0.00,,2013-04-18 07:02:00,
2013-04-18 03:12:00,62.0,56.0,30.03,NNE,26,0.0,0.0,82,0.00,,,0.00,,2013-04-18 07:12:00,
2013-04-18 03:22:00,62.0,56.0,30.03,NNE,26,0.0,0.0,82,0.00,,,0.00,,2013-04-18 07:22:00,
2013-04-18 03:32:00,62.0,56.0,30.03,NNE,26,0.0,0.0,82,0.00,,,0.00,,2013-04-18 07:32:00,
2013-04-18 03:42:00,62.0,56.0,30.03,NNE,26,0.0,0.0,82,0.00,,,0.00,,2013-04-18 07:42:00,
2013-04-18 03:52:00,62.0,56.0,30.03,NNE,26,0.0,0.0,82,0.00,,,0.00,,2013-04-18 07:52:00,
2013-04-18 04:12:00,62.0,57.0,30.03,NNE,26,0.0,0.0,83,0.00,,,0.00,,2013-04-18 08:12:00,
2013-04-18 04:22:00,62.0,57.0,30.03,NNE,26,0.0,0.0,83,0.00,,,0.00,,2013-04-18 08:22:00,
2013-04-18 04:32:00,62.0,57.0,30.03,NNE,26,0.0,0.0,83,0.00,,,0.00,,2013-04-18 08:32:00,
2013-04-18 04:42:00,62.0,57.0,30.03,NNE,26,0.0,0.0,83,0.00,,,0.00,,2013-04-18 08:42:00,
2013-04-18 04:52:00,62.0,57.0,30.03,NNE,26,0.0,0.0,83,0.00,,,0.00,,2013-04-18 08:52:00,
2013-04-18 05:30:00,64.0,58.0,30.03,NE,34,0.0,4.0,82,0.00,,,0.00,,2013-04-18 09:30:00,
2013-04-18 05:43:00,64.0,58.0,30.03,NE,34,0.0,4.0,82,0.00,,,0.00,,2013-04-18 09:43:00,
2013-04-18 05:53:00,64.0,58.0,30.03,NE,34,0.0,4.0,82,0.00,,,0.00,,2013-04-18 09:53:00,
2013-04-18 06:03:00,64.0,58.0,30.03,NE,34,0.0,4.0,82,0.00,,,0.00,,2013-04-18 10:03:00,
2013-04-18 06:12:00,64.0,58.0,30.03,NE,34,0.0,4.0,82,0.00,,,0.00,,2013-04-18 10:12:00,
2013-04-18 06:23:00,64.0,58.0,30.03,NE,34,0.0,4.0,82,0.00,,,0.00,,2013-04-18 10:23:00,
2013-04-18 07:52:00,63.0,57.0,30.03,NE,34,0.0,0.0,82,0.00,,,0.00,,2013-04-18 11:52:00,
2013-04-18 08:00:00,71.0,64.0,30.03,NE,35,0.0,4.0,79,0.00,,,0.00,,2013-04-18 12:00:00,
2013-04-18 08:02:00,63.0,57.0,30.03,NE,34,0.0,0.0,82,0.00,,,0.00,,2013-04-18 12:02:00,
2013-04-18 08:12:00,63.0,57.0,30.03,NE,34,0.0,0.0,82,0.00,,,0.00,,2013-04-18 12:12:00,
2013-04-18 08:22:00,71.0,64.0,30.03,NE,35,0.0,4.0,79,0.00,,,0.00,,2013-04-18 12:22:00,
2013-04-18 08:32:00,71.0,64.0,30.03,NE,35,0.0,4.0,79,0.00,,,0.00,,2013-04-18 12:32:00,
2013-04-18 08:42:00,71.0,64.0,30.03,NE,35,0.0,4.0,79,0.00,,,0.00,,2013-04-18 12:42:00,
2013-04-18 08:52:00,71.0,64.0,30.03,NE,35,0.0,4.0,79,0.00,,,0.00,,2013-04-18 12:52:00,
2013-04-18 09:22:00,86.0,60.0,30.06,ENE,60,0.0,6.0,41,0.00,,,0.00,,2013-04-18 13:22:00,
2013-04-18 09:30:00,87.0,62.0,30.06,NE,44,3.0,7.0,43,0.00,,,0.00,,2013-04-18 13:30:00,
2013-04-18 09:33:00,86.0,60.0,30.06,ENE,60,0.0,6.0,41,0.00,,,0.00,,2013-04-18 13:33:00,
2013-04-18 09:42:00,87.0,62.0,30.06,NE,44,3.0,7.0,43,0.00,,,0.00,,2013-04-18 13:42:00,
2013-04-18 09:52:00,87.0,62.0,30.06,NE,44,3.0,7.0,43,0.00,,,0.00,,2013-04-18 13:52:00,
2013-04-18 10:03:00,87.0,62.0,30.06,NE,44,3.0,7.0,43,0.00,,,0.00,,2013-04-18 14:03:00,
2013-04-18 10:12:00,87.0,62.0,30.06,NE,44,3.0,7.0,43,0.00,,,0.00,,2013-04-18 14:12:00,
2013-04-18 10:22:00,87.0,62.0,30.06,NE,44,3.0,7.0,43,0.00,,,0.00,,2013-04-18 14:22:00,
2013-04-18 10:52:00,108.0,61.0,30.06,NNW,330,4.0,6.0,22,0.00,,,0.00,,2013-04-18 14:52:00,
2013-04-18 11:00:00,87.0,58.0,30.06,West,273,5.0,7.0,37,0.00,,,0.00,,2013-04-18 15:00:00,
2013-04-18 11:03:00,108.0,61.0,30.06,NNW,330,4.0,6.0,22,0.00,,,0.00,,2013-04-18 15:03:00,
2013-04-18 11:12:00,108.0,61.0,30.06,NNW,330,4.0,6.0,22,0.00,,,0.00,,2013-04-18 15:12:00,
2013-04-18 11:22:00,87.0,58.0,30.06,West,273,5.0,7.0,37,0.00,,,0.00,,2013-04-18 15:22:00,
2013-04-18 11:33:00,87.0,58.0,30.06,West,273,5.0,7.0,37,0.00,,,0.00,,2013-04-18 15:33:00,
2013-04-18 11:43:00,87.0,58.0,30.06,West,273,5.0,7.0,37,0.00,,,0.00,,2013-04-18 15:43:00,
2013-04-18 11:53:00,87.0,58.0,30.06,West,273,5.0,7.0,37,0.00,,,0.00,,2013-04-18 15:53:00,
2013-04-18 12:43:00,87.0,63.0,30.03,SW,230,0.0,7.0,45,0.00,,,0.00,,2013-04-18 16:43:00,
2013-04-18 12:53:00,87.0,63.0,30.03,SW,230,0.0,7.0,45,0.00,,,0.00,,2013-04-18 16:53:00,
2013-04-18 13:03:00,87.0,63.0,30.03,SW,230,0.0,7.0,45,0.00,,,0.00,,2013-04-18 17:03:00,
2013-04-18 13:13:00,87.0,63.0,30.03,SW,230,0.0,7.0,45,0.00,,,0.00,,2013-04-18 17:13:00,
2013-04-18 13:22:00,87.0,63.0,30.03,SW,230,0.0,7.0,45,0.00,,,0.00,,2013-04-18 17:22:00,
2013-04-18 13:43:00,87.0,56.0,30.00,ENE,64,0.0,8.0,35,0.00,,,0.00,,2013-04-18 17:43:00,
2013-04-18 13:52:00,87.0,56.0,30.00,ENE,64,0.0,8.0,35,0.00,,,0.00,,2013-04-18 17:52:00,
2013-04-18 14:03:00,87.0,56.0,30.00,ENE,64,0.0,8.0,35,0.00,,,0.00,,2013-04-18 18:03:00,
2013-04-18 14:13:00,91.0,56.0,29.97,South,176,6.0,13.0,31,0.00,,,0.00,,2013-04-18 18:13:00,
2013-04-18 14:23:00,91.0,56.0,29.97,South,176,6.0,13.0,31,0.00,,,0.00,,2013-04-18 18:23:00,
2013-04-18 14:32:00,91.0,56.0,29.97,South,176,6.0,13.0,31,0.00,,,0.00,,2013-04-18 18:32:00,
2013-04-18 14:43:00,94.0,57.0,29.97,SSE,150,3.0,10.0,29,0.00,,,0.00,,2013-04-18 18:43:00,
2013-04-18 14:52:00,94.0,57.0,29.97,SSE,150,3.0,10.0,29,0.00,,,0.00,,2013-04-18 18:52:00,
2013-04-18 15:00:00,96.0,53.0,29.94,South,188,7.0,11.0,24,0.00,,,0.00,,2013-04-18 19:00:00,
2013-04-18 15:02:00,94.0,57.0,29.97,SSE,150,3.0,10.0,29,0.00,,,0.00,,2013-04-18 19:02:00,
2013-04-18 15:12:00,94.0,57.0,29.97,SSE,150,3.0,10.0,29,0.00,,,0.00,,2013-04-18 19:12:00,
2013-04-18 15:22:00,96.0,53.0,29.94,South,188,7.0,11.0,24,0.00,,,0.00,,2013-04-18 19:22:00,
2013-04-18 15:32:00,96.0,53.0,29.94,South,188,7.0,11.0,24,0.00,,,0.00,,2013-04-18 19:32:00,
2013-04-18 15:43:00,96.0,53.0,29.94,South,188,7.0,11.0,24,0.00,,,0.00,,2013-04-18 19:43:00,
2013-04-18 15:53:00,96.0,53.0,29.94,South,188,7.0,11.0,24,0.00,,,0.00,,2013-04-18 19:53:00,
2013-04-18 16:43:00,100.0,52.0,29.94,ESE,116,9.0,17.0,20,0.00,,,0.00,,2013-04-18 20:43:00,
2013-04-18 16:52:00,100.0,52.0,29.94,ESE,116,9.0,17.0,20,0.00,,,0.00,,2013-04-18 20:52:00,
2013-04-18 17:03:00,100.0,52.0,29.94,ESE,116,9.0,17.0,20,0.00,,,0.00,,2013-04-18 21:03:00,
2013-04-18 17:12:00,91.0,47.0,29.94,ESE,117,8.0,15.0,22,0.00,,,0.00,,2013-04-18 21:12:00,
2013-04-18 17:22:00,91.0,47.0,29.94,ESE,117,8.0,15.0,22,0.00,,,0.00,,2013-04-18 21:22:00,
2013-04-18 17:33:00,91.0,47.0,29.94,ESE,117,8.0,15.0,22,0.00,,,0.00,,2013-04-18 21:33:00,
2013-04-18 17:43:00,91.0,47.0,29.94,ESE,117,8.0,15.0,22,0.00,,,0.00,,2013-04-18 21:43:00,
2013-04-18 17:53:00,91.0,47.0,29.94,ESE,117,8.0,15.0,22,0.00,,,0.00,,2013-04-18 21:53:00,
2013-04-18 18:13:00,93.0,48.0,29.91,SSE,159,6.0,15.0,22,0.00,,,0.00,,2013-04-18 22:13:00,
2013-04-18 18:23:00,93.0,48.0,29.91,SSE,159,6.0,15.0,22,0.00,,,0.00,,2013-04-18 22:23:00,
2013-04-18 18:33:00,93.0,48.0,29.91,SSE,159,6.0,15.0,22,0.00,,,0.00,,2013-04-18 22:33:00,
2013-04-18 18:42:00,89.0,46.0,29.91,SE,125,5.0,17.0,23,0.00,,,0.00,,2013-04-18 22:42:00,
2013-04-18 18:52:00,89.0,46.0,29.91,SE,125,5.0,17.0,23,0.00,,,0.00,,2013-04-18 22:52:00,
2013-04-18 19:04:00,89.0,46.0,29.91,SE,125,5.0,17.0,23,0.00,,,0.00,,2013-04-18 23:04:00,
2013-04-18 19:12:00,85.0,44.0,29.88,ESE,119,7.0,16.0,24,0.00,,,0.00,,2013-04-18 23:12:00,
2013-04-18 19:21:00,85.0,44.0,29.88,ESE,119,7.0,16.0,24,0.00,,,0.00,,2013-04-18 23:21:00,
2013-04-18 19:32:00,85.0,44.0,29.88,ESE,119,7.0,16.0,24,0.00,,,0.00,,2013-04-18 23:32:00,
2013-04-18 19:42:00,84.0,46.0,29.88,ESE,112,6.0,12.0,27,0.00,,,0.00,,2013-04-18 23:42:00,
2013-04-18 19:52:00,84.0,46.0,29.88,ESE,112,6.0,12.0,27,0.00,,,0.00,,2013-04-18 23:52:00,
2013-04-18 20:01:00,84.0,46.0,29.88,ESE,112,6.0,12.0,27,0.00,,,0.00,,2013-04-19 00:01:00,
2013-04-18 20:12:00,84.0,46.0,29.88,ESE,112,6.0,12.0,27,0.00,,,0.00,,2013-04-19 00:12:00,
2013-04-18 20:22:00,84.0,46.0,29.88,ESE,112,6.0,12.0,27,0.00,,,0.00,,2013-04-19 00:22:00,
2013-04-18 21:52:00,77.0,49.0,29.88,ESE,110,3.0,6.0,37,0.00,,,0.00,,2013-04-19 01:52:00,
2013-04-18 22:02:00,77.0,49.0,29.88,ESE,110,3.0,6.0,37,0.00,,,0.00,,2013-04-19 02:02:00,
2013-04-18 22:11:00,77.0,49.0,29.88,ESE,110,3.0,6.0,37,0.00,,,0.00,,2013-04-19 02:11:00,
2013-04-18 22:21:00,75.0,49.0,29.88,ESE,111,0.0,4.0,40,0.00,,,0.00,,2013-04-19 02:21:00,
2013-04-18 22:32:00,75.0,49.0,29.88,ESE,111,0.0,4.0,40,0.00,,,0.00,,2013-04-19 02:32:00,
2013-04-18 22:42:00,75.0,49.0,29.88,ESE,111,0.0,4.0,40,0.00,,,0.00,,2013-04-19 02:42:00,
2013-04-18 22:51:00,75.0,49.0,29.88,ESE,111,0.0,4.0,40,0.00,,,0.00,,2013-04-19 02:51:00,